Dades meteomassalio
Diari Summary for Setembre 25, 2017 Units:  Metric    English   Both
« Previous Day
Next Day »
Diari Semanal Mensual Anual Personalitzat
  Maxima: Minima: Mijana:
Temperatura: 26.7 °C 10.0 °C 18.7 °C
Rosada: 15.4 °C 3.6 °C 10.3 °C
Humitat: 81 % 37 % 60 %
Velocitat del vent: 42.6 km/h 0.0 km/h 14.9 km/h
Racha vent: 42.6 km/h - -
Vent:- - SW
Pressio: 1022.2 hPa 1018.2 hPa -
Pluja: 0.0 mm    
Historical Graphs
 
 
Tabular Data for Setembre 25, 2017
Time Temperature Dew Point Pressure Wind Wind Speed Wind Gust Humidity Rainfall Rate (Hourly) solar Conditions
00:04 15.0 °C 8.9 °C 1019.9 hPa Calm     67 % 0.0 mm 0.0 W/m2 CLR
00:09 15.0 °C 8.9 °C 1019.9 hPa Calm     67 % 0.0 mm 0.0 W/m2 CLR
00:14 15.0 °C 8.7 °C 1019.9 hPa Calm     66 % 0.0 mm 0.0 W/m2 CLR
00:19 15.0 °C 8.9 °C 1019.9 hPa Calm     67 % 0.0 mm 0.0 W/m2 CLR
00:24 14.4 °C 8.6 °C 1019.9 hPa Calm     68 % 0.0 mm 0.0 W/m2 CLR
00:29 14.4 °C 8.8 °C 1019.9 hPa Calm     69 % 0.0 mm 0.0 W/m2 CLR
00:34 14.4 °C 8.8 °C 1019.9 hPa Calm     69 % 0.0 mm 0.0 W/m2 CLR
00:39 14.4 °C 9.1 °C 1019.9 hPa Calm     70 % 0.0 mm 0.0 W/m2 CLR
00:44 13.9 °C 8.3 °C 1019.9 hPa Calm     69 % 0.0 mm 0.0 W/m2 CLR
00:49 13.9 °C 8.3 °C 1019.5 hPa Calm     69 % 0.0 mm 0.0 W/m2 CLR
00:54 13.9 °C 8.3 °C 1019.5 hPa Calm     69 % 0.0 mm 0.0 W/m2 CLR
00:59 13.9 °C 8.3 °C 1019.5 hPa Calm     69 % 0.0 mm 0.0 W/m2 CLR
01:04 13.9 °C 8.5 °C 1019.9 hPa Calm     70 % 0.0 mm 0.0 W/m2 CLR
01:09 13.3 °C 8.0 °C 1019.5 hPa Calm     70 % 0.0 mm 0.0 W/m2 CLR
01:14 13.3 °C 8.0 °C 1019.5 hPa Calm     70 % 0.0 mm 0.0 W/m2 CLR
01:19 13.3 °C 8.2 °C 1019.5 hPa Calm     71 % 0.0 mm 0.0 W/m2 CLR
01:24 13.3 °C 8.2 °C 1019.5 hPa Calm     71 % 0.0 mm 0.0 W/m2 CLR
01:29 13.3 °C 8.4 °C 1019.5 hPa Calm     72 % 0.0 mm 0.0 W/m2 CLR
01:34 13.3 °C 8.4 °C 1019.5 hPa Calm     72 % 0.0 mm 0.0 W/m2 CLR
01:39 13.3 °C 8.4 °C 1019.5 hPa Calm     72 % 0.0 mm 0.0 W/m2 CLR
01:44 12.8 °C 7.8 °C 1019.5 hPa Calm     72 % 0.0 mm 0.0 W/m2 CLR
01:49 12.8 °C 8.1 °C 1019.5 hPa Calm     73 % 0.0 mm 0.0 W/m2 CLR
01:54 12.8 °C 7.8 °C 1019.5 hPa Calm     72 % 0.0 mm 0.0 W/m2 CLR
01:59 12.8 °C 8.1 °C 1019.5 hPa Calm     73 % 0.0 mm 0.0 W/m2 CLR
02:04 12.8 °C 8.1 °C 1019.2 hPa Calm     73 % 0.0 mm 0.0 W/m2 CLR
02:09 12.8 °C 8.1 °C 1019.2 hPa Calm     73 % 0.0 mm 0.0 W/m2 CLR
02:14 12.8 °C 8.1 °C 1019.5 hPa Calm     73 % 0.0 mm 0.0 W/m2 CLR
02:19 12.8 °C 8.1 °C 1019.5 hPa Calm     73 % 0.0 mm 0.0 W/m2 CLR
02:24 12.2 °C 7.7 °C 1019.2 hPa Calm     74 % 0.0 mm 0.0 W/m2 CLR
02:29 12.2 °C 7.7 °C 1019.2 hPa Calm     74 % 0.0 mm 0.0 W/m2 CLR
02:34 12.2 °C 7.7 °C 1019.2 hPa Calm     74 % 0.0 mm 0.0 W/m2 CLR
02:40 12.2 °C 7.7 °C 1019.2 hPa Calm     74 % 0.0 mm 0.0 W/m2 CLR
02:45 12.2 °C 7.7 °C 1019.2 hPa Calm     74 % 0.0 mm 0.0 W/m2 CLR
02:50 12.2 °C 7.9 °C 1019.2 hPa Calm     75 % 0.0 mm 0.0 W/m2 CLR
02:55 12.2 °C 7.9 °C 1019.2 hPa Calm     75 % 0.0 mm 0.0 W/m2 CLR
03:00 12.2 °C 7.9 °C 1019.2 hPa Calm     75 % 0.0 mm 0.0 W/m2 CLR
03:05 12.2 °C 7.9 °C 1019.2 hPa Calm     75 % 0.0 mm 0.0 W/m2 CLR
03:10 12.2 °C 7.9 °C 1019.2 hPa Calm     75 % 0.0 mm 0.0 W/m2 CLR
03:15 12.2 °C 7.9 °C 1018.8 hPa Calm     75 % 0.0 mm 0.0 W/m2 CLR
03:20 12.2 °C 7.9 °C 1018.8 hPa Calm     75 % 0.0 mm 0.0 W/m2 CLR
03:25 12.2 °C 7.9 °C 1018.8 hPa Calm     75 % 0.0 mm 0.0 W/m2 CLR
03:30 12.2 °C 8.1 °C 1018.8 hPa Calm     76 % 0.0 mm 0.0 W/m2 CLR
03:35 11.7 °C 7.6 °C 1018.8 hPa Calm     76 % 0.0 mm 0.0 W/m2 CLR
03:40 11.7 °C 7.6 °C 1018.8 hPa Calm     76 % 0.0 mm 0.0 W/m2 CLR
03:45 11.7 °C 7.6 °C 1018.8 hPa Calm     76 % 0.0 mm 0.0 W/m2 CLR
03:50 11.7 °C 7.6 °C 1018.8 hPa Calm     76 % 0.0 mm 0.0 W/m2 CLR
03:55 11.1 °C 7.1 °C 1018.8 hPa Calm     76 % 0.0 mm 0.0 W/m2 CLR
04:00 11.1 °C 7.1 °C 1018.8 hPa Calm     76 % 0.0 mm 0.0 W/m2 CLR
04:05 11.1 °C 7.2 °C 1018.5 hPa Calm     77 % 0.0 mm 0.0 W/m2 CLR
04:10 11.1 °C 7.2 °C 1018.5 hPa Calm     77 % 0.0 mm 0.0 W/m2 CLR
04:16 11.1 °C 7.4 °C 1018.5 hPa Calm     78 % 0.0 mm 0.0 W/m2 CLR
04:21 11.1 °C 7.4 °C 1018.5 hPa Calm     78 % 0.0 mm 0.0 W/m2 CLR
04:26 10.6 °C 6.9 °C 1018.5 hPa Calm     78 % 0.0 mm 0.0 W/m2 CLR
04:31 10.6 °C 6.7 °C 1018.5 hPa Calm     77 % 0.0 mm 0.0 W/m2 CLR
04:32 10.6 °C 6.7 °C 1018.5 hPa Calm     77 % 0.0 mm 0.0 W/m2 CLR
04:37 10.6 °C 6.7 °C 1018.5 hPa Calm     77 % 0.0 mm 0.0 W/m2 CLR
04:42 10.6 °C 6.9 °C 1018.5 hPa Calm     78 % 0.0 mm 0.0 W/m2 CLR
04:47 10.6 °C 6.9 °C 1018.5 hPa Calm     78 % 0.0 mm 0.0 W/m2 CLR
04:52 10.6 °C 6.9 °C 1018.5 hPa Calm     78 % 0.0 mm 0.0 W/m2 CLR
04:57 10.0 °C 6.2 °C 1018.5 hPa Calm     77 % 0.0 mm 0.0 W/m2 CLR
05:02 10.0 °C 6.2 °C 1018.5 hPa Calm     77 % 0.0 mm 0.0 W/m2 CLR
05:07 10.0 °C 6.3 °C 1018.2 hPa Calm     78 % 0.0 mm 0.0 W/m2 CLR
05:18 10.0 °C 6.5 °C 1018.2 hPa Calm     79 % 0.0 mm 0.0 W/m2 CLR
05:21 10.0 °C 6.5 °C 1018.2 hPa Calm     79 % 0.0 mm 0.0 W/m2 CLR
05:22 10.0 °C 6.5 °C 1018.2 hPa Calm     79 % 0.0 mm 0.0 W/m2 CLR
05:26 10.0 °C 6.5 °C 1018.2 hPa Calm     79 % 0.0 mm 0.0 W/m2 CLR
05:27 10.0 °C 6.5 °C 1018.2 hPa Calm     79 % 0.0 mm 0.0 W/m2 CLR
05:32 10.0 °C 6.5 °C 1018.2 hPa Calm     79 % 0.0 mm 0.0 W/m2 CLR
05:37 10.0 °C 6.5 °C 1018.2 hPa Calm     79 % 0.0 mm 0.0 W/m2 CLR
05:42 10.0 °C 6.7 °C 1018.2 hPa Calm     80 % 0.0 mm 0.0 W/m2 CLR
05:47 10.0 °C 6.7 °C 1018.2 hPa Calm     80 % 0.0 mm 0.0 W/m2 CLR
05:52 10.0 °C 6.5 °C 1018.2 hPa Calm     79 % 0.0 mm 0.0 W/m2 CLR
05:57 10.0 °C 6.7 °C 1018.2 hPa Calm     80 % 0.0 mm 0.0 W/m2 CLR
06:02 10.0 °C 6.7 °C 1018.2 hPa Calm     80 % 0.0 mm 0.0 W/m2 CLR
06:12 10.0 °C 6.7 °C 1018.2 hPa Calm     80 % 0.0 mm 0.0 W/m2 CLR
06:17 10.0 °C 6.7 °C 1018.2 hPa Calm     80 % 0.0 mm 0.0 W/m2 CLR
06:22 10.0 °C 6.7 °C 1018.2 hPa Calm     80 % 0.0 mm 0.0 W/m2 CLR
06:27 10.0 °C 6.7 °C 1018.2 hPa Calm     80 % 0.0 mm 0.0 W/m2 CLR
06:32 10.0 °C 6.7 °C 1018.2 hPa Calm     80 % 0.0 mm 0.0 W/m2 CLR
06:37 10.0 °C 6.9 °C 1018.5 hPa Calm     81 % 0.0 mm 0.0 W/m2 CLR
06:42 10.0 °C 6.7 °C 1018.5 hPa Calm     80 % 0.0 mm 0.0 W/m2 CLR
06:47 10.0 °C 6.9 °C 1018.5 hPa Calm     81 % 0.0 mm 0.0 W/m2 CLR
06:52 10.0 °C 6.9 °C 1018.5 hPa Calm     81 % 0.0 mm 0.0 W/m2 CLR
06:57 10.6 °C 7.4 °C 1018.5 hPa Calm     81 % 0.0 mm 0.0 W/m2 CLR
07:02 10.6 °C 7.4 °C 1018.5 hPa Calm     81 % 0.0 mm 0.0 W/m2 CLR
07:07 10.6 °C 7.2 °C 1018.5 hPa Calm     80 % 0.0 mm 0.0 W/m2 CLR
07:12 10.6 °C 7.1 °C 1018.5 hPa Calm     79 % 0.0 mm 0.0 W/m2 CLR
07:17 11.1 °C 7.6 °C 1018.5 hPa Calm     79 % 0.0 mm 0.0 W/m2 CLR
07:22 11.1 °C 7.6 °C 1018.5 hPa Calm     79 % 0.0 mm 0.0 W/m2 CLR
07:27 11.1 °C 7.8 °C 1018.5 hPa Calm     80 % 0.0 mm 0.0 W/m2 CLR
07:32 11.1 °C 7.8 °C 1018.8 hPa Calm     80 % 0.0 mm 0.0 W/m2 CLR
07:37 11.1 °C 7.8 °C 1018.8 hPa Calm     80 % 0.0 mm 0.0 W/m2 CLR
07:42 11.1 °C 7.8 °C 1018.8 hPa Calm     80 % 0.0 mm 0.0 W/m2 OVC
07:47 11.1 °C 7.8 °C 1019.2 hPa Calm     80 % 0.0 mm 0.0 W/m2 OVC
07:52 11.1 °C 7.6 °C 1019.2 hPa Calm     79 % 0.0 mm 0.0 W/m2 OVC
07:57 11.1 °C 7.4 °C 1019.2 hPa SSW 16.7 km/h 16.7 km/h 78 % 0.0 mm 0.0 W/m2 OVC
08:02 11.1 °C 5.2 °C 1018.8 hPa SSW 18.5 km/h 18.5 km/h 67 % 0.0 mm 5.0 W/m2 OVC
08:07 11.1 °C 3.6 °C 1019.2 hPa SSW 16.7 km/h 16.7 km/h 60 % 0.0 mm 9.0 W/m2 BKN
08:12 11.7 °C 3.9 °C 1019.2 hPa SSW 18.5 km/h 18.5 km/h 59 % 0.0 mm 11.0 W/m2 BKN
08:17 12.2 °C 4.7 °C 1019.2 hPa SSW 16.1 km/h 16.1 km/h 60 % 0.0 mm 18.0 W/m2 BKN
08:23 13.3 °C 5.9 °C 1019.2 hPa WSW 9.7 km/h 9.7 km/h 61 % 0.0 mm 26.0 W/m2 BKN
08:28 13.9 °C 7.2 °C 1019.5 hPa WSW 11.3 km/h 11.3 km/h 64 % 0.0 mm 25.0 W/m2 BKN
08:33 13.9 °C 7.6 °C 1019.5 hPa SW 5.6 km/h 5.6 km/h 66 % 0.0 mm 30.0 W/m2 BKN
08:38 13.9 °C 8.3 °C 1019.5 hPa SSW 9.3 km/h 9.3 km/h 69 % 0.0 mm 35.0 W/m2 BKN
08:43 13.9 °C 8.5 °C 1019.5 hPa SSW 1.9 km/h 1.9 km/h 70 % 0.0 mm 44.0 W/m2 BKN
08:48 14.4 °C 9.7 °C 1019.9 hPa SW 6.4 km/h 6.4 km/h 73 % 0.0 mm 60.0 W/m2 SCT
08:53 14.4 °C 9.9 °C 1019.9 hPa SW 5.6 km/h 5.6 km/h 74 % 0.0 mm 81.0 W/m2 SCT
08:58 15.0 °C 10.6 °C 1019.5 hPa Calm     75 % 0.0 mm 144.0 W/m2 FEW
09:03 15.6 °C 11.2 °C 1019.9 hPa SSW 5.6 km/h 5.6 km/h 75 % 0.0 mm 186.0 W/m2 CLR
09:08 17.2 °C 12.6 °C 1019.9 hPa SSW 9.7 km/h 9.7 km/h 74 % 0.0 mm 167.0 W/m2 CLR
09:13 17.8 °C 13.1 °C 1019.9 hPa SSW 11.1 km/h 11.1 km/h 74 % 0.0 mm 84.0 W/m2 CLR
09:18 17.8 °C 13.1 °C 1019.9 hPa SW 7.4 km/h 7.4 km/h 74 % 0.0 mm 109.0 W/m2 CLR
09:23 18.3 °C 13.6 °C 1019.9 hPa Calm     74 % 0.0 mm 113.0 W/m2 CLR
09:28 18.3 °C 13.4 °C 1019.9 hPa South 3.7 km/h 3.7 km/h 73 % 0.0 mm 225.0 W/m2 CLR
09:33 18.3 °C 13.4 °C 1020.2 hPa Calm     73 % 0.0 mm 114.0 W/m2 CLR
09:38 18.3 °C 13.4 °C 1020.2 hPa Calm     73 % 0.0 mm 301.0 W/m2 CLR
09:43 18.9 °C 13.7 °C 1020.2 hPa Calm     72 % 0.0 mm 100.0 W/m2 CLR
09:48 18.9 °C 13.7 °C 1020.2 hPa SSW 14.5 km/h 14.5 km/h 72 % 0.0 mm 352.0 W/m2 CLR
09:53 18.9 °C 13.3 °C 1020.2 hPa South 6.4 km/h 6.4 km/h 70 % 0.0 mm 399.0 W/m2 CLR
09:58 19.4 °C 13.4 °C 1020.2 hPa South 13.0 km/h 13.0 km/h 68 % 0.0 mm 410.0 W/m2 CLR
10:03 20.0 °C 13.7 °C 1020.2 hPa WSW 16.1 km/h 16.1 km/h 67 % 0.0 mm 149.0 W/m2 CLR
10:08 20.0 °C 13.4 °C 1020.2 hPa SW 11.3 km/h 11.3 km/h 66 % 0.0 mm 186.0 W/m2 CLR
10:13 20.6 °C 14.0 °C 1020.5 hPa SW 16.1 km/h 16.1 km/h 66 % 0.0 mm 457.0 W/m2 CLR
10:18 20.6 °C 14.0 °C 1020.5 hPa SSW 14.8 km/h 14.8 km/h 66 % 0.0 mm 322.0 W/m2 CLR
10:23 20.6 °C 14.0 °C 1020.5 hPa SSW 20.4 km/h 20.4 km/h 66 % 0.0 mm 531.0 W/m2 CLR
10:28 21.1 °C 14.5 °C 1020.5 hPa SW 20.4 km/h 20.4 km/h 66 % 0.0 mm 230.0 W/m2 CLR
10:33 21.1 °C 14.5 °C 1020.5 hPa West 18.5 km/h 18.5 km/h 66 % 0.0 mm 538.0 W/m2 CLR
10:38 21.1 °C 14.5 °C 1020.5 hPa SW 14.8 km/h 14.8 km/h 66 % 0.0 mm 332.0 W/m2 CLR
10:43 21.1 °C 14.3 °C 1020.5 hPa SSW 13.0 km/h 13.0 km/h 65 % 0.0 mm 348.0 W/m2 CLR
10:48 21.1 °C 14.1 °C 1020.5 hPa SW 8.0 km/h 8.0 km/h 64 % 0.0 mm 264.0 W/m2 CLR
10:53 21.7 °C 14.3 °C 1020.5 hPa WSW 13.0 km/h 13.0 km/h 63 % 0.0 mm 220.0 W/m2 CLR
10:58 21.7 °C 14.1 °C 1020.5 hPa SW 9.7 km/h 9.7 km/h 62 % 0.0 mm 186.0 W/m2 CLR
11:03 21.7 °C 14.1 °C 1020.5 hPa SSW 11.1 km/h 11.1 km/h 62 % 0.0 mm 132.0 W/m2 CLR
11:09 21.1 °C 13.8 °C 1020.5 hPa SSW 13.0 km/h 13.0 km/h 63 % 0.0 mm 591.0 W/m2 CLR
11:14 21.1 °C 14.1 °C 1020.2 hPa South 9.7 km/h 9.7 km/h 64 % 0.0 mm 589.0 W/m2 CLR
11:19 21.1 °C 14.1 °C 1020.5 hPa South 16.7 km/h 16.7 km/h 64 % 0.0 mm 171.0 W/m2 CLR
11:24 21.7 °C 14.6 °C 1020.5 hPa SSW 17.7 km/h 17.7 km/h 64 % 0.0 mm 207.0 W/m2 CLR
11:29 21.7 °C 14.3 °C 1020.2 hPa SSW 22.2 km/h 22.2 km/h 63 % 0.0 mm 598.0 W/m2 CLR
11:34 22.2 °C 14.8 °C 1020.2 hPa SSW 14.8 km/h 14.8 km/h 63 % 0.0 mm 638.0 W/m2 CLR
11:39 22.8 °C 15.4 °C 1020.2 hPa SW 14.8 km/h 14.8 km/h 63 % 0.0 mm 628.0 W/m2 CLR
11:44 22.8 °C 15.1 °C 1020.2 hPa SW 13.0 km/h 13.0 km/h 62 % 0.0 mm 603.0 W/m2 CLR
11:49 23.3 °C 15.1 °C 1020.2 hPa SW 16.7 km/h 16.7 km/h 60 % 0.0 mm 596.0 W/m2 CLR
11:54 23.3 °C 14.6 °C 1020.2 hPa SW 24.1 km/h 24.1 km/h 58 % 0.0 mm 601.0 W/m2 CLR
12:04 23.9 °C 14.8 °C 1020.2 hPa SW 14.8 km/h 14.8 km/h 57 % 0.0 mm 626.0 W/m2 CLR
12:09 23.9 °C 14.6 °C 1020.2 hPa SW 24.1 km/h 24.1 km/h 56 % 0.0 mm 635.0 W/m2 CLR
12:14 24.4 °C 14.6 °C 1020.2 hPa WSW 25.9 km/h 25.9 km/h 54 % 0.0 mm 647.0 W/m2 CLR
12:19 24.4 °C 14.6 °C 1020.2 hPa SW 19.3 km/h 19.3 km/h 54 % 0.0 mm 657.0 W/m2 CLR
12:24 24.4 °C 13.9 °C 1020.2 hPa West 24.1 km/h 24.1 km/h 52 % 0.0 mm 638.0 W/m2 CLR
12:29 24.4 °C 13.3 °C 1020.2 hPa SW 27.8 km/h 27.8 km/h 50 % 0.0 mm 679.0 W/m2 CLR
12:34 24.4 °C 13.3 °C 1020.2 hPa WSW 24.1 km/h 24.1 km/h 50 % 0.0 mm 661.0 W/m2 CLR
12:39 24.4 °C 13.1 °C 1020.2 hPa West 31.5 km/h 31.5 km/h 49 % 0.0 mm 475.0 W/m2 CLR
12:44 24.4 °C 12.7 °C 1020.2 hPa WSW 33.3 km/h 33.3 km/h 48 % 0.0 mm 705.0 W/m2 CLR
12:49 24.4 °C 12.7 °C 1020.2 hPa WSW 33.3 km/h 33.3 km/h 48 % 0.0 mm 701.0 W/m2 CLR
12:54 25.0 °C 12.9 °C 1019.9 hPa SW 22.2 km/h 22.2 km/h 47 % 0.0 mm 461.0 W/m2 CLR
12:59 25.6 °C 13.4 °C 1019.9 hPa SSW 18.5 km/h 18.5 km/h 47 % 0.0 mm 788.0 W/m2 CLR
13:04 24.4 °C 12.1 °C 1019.9 hPa West 25.9 km/h 25.9 km/h 46 % 0.0 mm 752.0 W/m2 CLR
13:09 24.4 °C 12.1 °C 1019.9 hPa WSW 22.2 km/h 22.2 km/h 46 % 0.0 mm 775.0 W/m2 CLR
13:14 25.0 °C 12.2 °C 1019.9 hPa WSW 25.9 km/h 25.9 km/h 45 % 0.0 mm 735.0 W/m2 CLR
13:19 25.0 °C 12.2 °C 1019.9 hPa SW 20.4 km/h 20.4 km/h 45 % 0.0 mm 738.0 W/m2 CLR
13:24 25.6 °C 12.4 °C 1019.9 hPa SSW 18.5 km/h 18.5 km/h 44 % 0.0 mm 747.0 W/m2 CLR
13:29 25.6 °C 12.1 °C 1019.9 hPa SW 31.5 km/h 31.5 km/h 43 % 0.0 mm 686.0 W/m2 CLR
13:34 25.6 °C 12.4 °C 1019.9 hPa SW 22.2 km/h 22.2 km/h 44 % 0.0 mm 754.0 W/m2 CLR
13:39 25.6 °C 11.7 °C 1019.5 hPa WSW 25.7 km/h 25.7 km/h 42 % 0.0 mm 731.0 W/m2 CLR
13:44 25.6 °C 11.7 °C 1019.9 hPa West 24.1 km/h 24.1 km/h 42 % 0.0 mm 728.0 W/m2 CLR
13:49 26.1 °C 12.2 °C 1019.5 hPa West 25.7 km/h 25.7 km/h 42 % 0.0 mm 731.0 W/m2 CLR
13:54 25.6 °C 10.9 °C 1019.5 hPa WNW 25.7 km/h 25.7 km/h 40 % 0.0 mm 737.0 W/m2 CLR
13:59 25.6 °C 11.3 °C 1019.5 hPa WSW 25.9 km/h 25.9 km/h 41 % 0.0 mm 729.0 W/m2 CLR
14:04 26.1 °C 11.4 °C 1019.5 hPa WSW 25.9 km/h 25.9 km/h 40 % 0.0 mm 731.0 W/m2 CLR
14:09 26.1 °C 11.1 °C 1019.5 hPa West 25.9 km/h 25.9 km/h 39 % 0.0 mm 735.0 W/m2 CLR
14:14 26.7 °C 11.6 °C 1019.2 hPa West 14.8 km/h 16.1 km/h 39 % 0.0 mm 751.0 W/m2 CLR
14:19 26.7 °C 11.6 °C 1019.2 hPa WSW 25.9 km/h 25.9 km/h 39 % 0.0 mm 628.0 W/m2 CLR
14:24 26.7 °C 11.9 °C 1019.2 hPa SW 18.5 km/h 18.5 km/h 40 % 0.0 mm 726.0 W/m2 CLR
14:29 26.7 °C 11.6 °C 1019.2 hPa West 29.6 km/h 29.6 km/h 39 % 0.0 mm 722.0 W/m2 CLR
14:34 26.7 °C 11.9 °C 1019.2 hPa West 24.1 km/h 24.1 km/h 40 % 0.0 mm 735.0 W/m2 CLR
14:39 26.7 °C 11.6 °C 1019.2 hPa WSW 9.3 km/h 9.3 km/h 39 % 0.0 mm 714.0 W/m2 CLR
14:44 26.7 °C 12.3 °C 1019.2 hPa West 20.4 km/h 20.4 km/h 41 % 0.0 mm 705.0 W/m2 CLR
14:49 26.7 °C 11.6 °C 1018.8 hPa West 22.2 km/h 22.2 km/h 39 % 0.0 mm 700.0 W/m2 CLR
14:54 26.7 °C 11.9 °C 1018.8 hPa WSW 22.2 km/h 22.2 km/h 40 % 0.0 mm 696.0 W/m2 CLR
14:59 26.1 °C 11.1 °C 1018.8 hPa WSW 29.6 km/h 29.6 km/h 39 % 0.0 mm 700.0 W/m2 CLR
15:04 26.1 °C 11.1 °C 1018.8 hPa West 22.2 km/h 22.2 km/h 39 % 0.0 mm 666.0 W/m2 CLR
15:10 26.7 °C 11.2 °C 1018.8 hPa WSW 20.9 km/h 20.9 km/h 38 % 0.0 mm 726.0 W/m2 CLR
15:15 26.1 °C 10.7 °C 1018.8 hPa SW 24.1 km/h 24.1 km/h 38 % 0.0 mm 619.0 W/m2 CLR
15:19 26.1 °C 10.7 °C 1018.8 hPa SW 25.9 km/h 25.9 km/h 38 % 0.0 mm 726.0 W/m2 CLR
15:25 26.7 °C 11.2 °C 1018.5 hPa SW 22.2 km/h 22.2 km/h 38 % 0.0 mm 640.0 W/m2 CLR
15:30 26.7 °C 11.6 °C 1018.5 hPa WSW 31.5 km/h 31.5 km/h 39 % 0.0 mm 554.0 W/m2 CLR
15:35 26.7 °C 11.2 °C 1018.5 hPa SW 31.5 km/h 31.5 km/h 38 % 0.0 mm 631.0 W/m2 CLR
15:40 26.7 °C 11.2 °C 1018.5 hPa West 20.4 km/h 20.4 km/h 38 % 0.0 mm 598.0 W/m2 CLR
15:45 26.7 °C 10.8 °C 1018.5 hPa West 24.1 km/h 24.1 km/h 37 % 0.0 mm 642.0 W/m2 CLR
15:50 26.1 °C 10.3 °C 1018.5 hPa WSW 22.2 km/h 22.2 km/h 37 % 0.0 mm 383.0 W/m2 CLR
15:55 25.6 °C 10.2 °C 1018.5 hPa WSW 18.5 km/h 18.5 km/h 38 % 0.0 mm 267.0 W/m2 CLR
16:00 25.6 °C 10.2 °C 1018.5 hPa West 24.1 km/h 24.1 km/h 38 % 0.0 mm 401.0 W/m2 CLR
16:05 25.6 °C 10.9 °C 1018.5 hPa West 24.1 km/h 24.1 km/h 40 % 0.0 mm 295.0 W/m2 CLR
16:10 25.0 °C 10.4 °C 1018.5 hPa West 29.6 km/h 29.6 km/h 40 % 0.0 mm 501.0 W/m2 CLR
16:15 26.1 °C 11.1 °C 1018.5 hPa SW 16.1 km/h 16.1 km/h 39 % 0.0 mm 664.0 W/m2 CLR
16:20 26.1 °C 11.1 °C 1018.5 hPa WSW 27.8 km/h 27.8 km/h 39 % 0.0 mm 301.0 W/m2 CLR
16:25 26.1 °C 11.4 °C 1018.5 hPa WSW 22.2 km/h 22.2 km/h 40 % 0.0 mm 496.0 W/m2 CLR
16:30 26.1 °C 11.4 °C 1018.5 hPa West 25.9 km/h 25.9 km/h 40 % 0.0 mm 315.0 W/m2 CLR
16:35 26.1 °C 11.4 °C 1018.5 hPa West 20.9 km/h 20.9 km/h 40 % 0.0 mm 589.0 W/m2 CLR
16:40 26.1 °C 10.7 °C 1018.5 hPa WNW 29.6 km/h 29.6 km/h 38 % 0.0 mm 504.0 W/m2 CLR
16:45 26.1 °C 10.3 °C 1018.5 hPa WNW 29.6 km/h 29.6 km/h 37 % 0.0 mm 459.0 W/m2 CLR
16:50 26.1 °C 11.1 °C 1018.5 hPa WSW 27.8 km/h 27.8 km/h 39 % 0.0 mm 469.0 W/m2 CLR
16:55 26.1 °C 10.7 °C 1018.5 hPa West 25.9 km/h 25.9 km/h 38 % 0.0 mm 339.0 W/m2 CLR
17:00 26.1 °C 11.1 °C 1018.2 hPa West 22.2 km/h 22.2 km/h 39 % 0.0 mm 255.0 W/m2 CLR
17:05 25.6 °C 10.9 °C 1018.2 hPa West 25.9 km/h 25.9 km/h 40 % 0.0 mm 193.0 W/m2 CLR
17:10 25.0 °C 10.4 °C 1018.2 hPa SW 29.6 km/h 29.6 km/h 40 % 0.0 mm 287.0 W/m2 CLR
17:15 25.6 °C 10.2 °C 1018.2 hPa WSW 25.9 km/h 25.9 km/h 38 % 0.0 mm 206.0 W/m2 CLR
17:20 25.6 °C 10.9 °C 1018.2 hPa West 24.1 km/h 24.1 km/h 40 % 0.0 mm 424.0 W/m2 CLR
17:25 26.1 °C 11.8 °C 1018.5 hPa SW 20.9 km/h 20.9 km/h 41 % 0.0 mm 475.0 W/m2 CLR
17:30 26.7 °C 12.3 °C 1018.5 hPa WSW 24.1 km/h 24.1 km/h 41 % 0.0 mm 452.0 W/m2 CLR
17:35 26.1 °C 12.2 °C 1018.2 hPa WSW 25.9 km/h 25.9 km/h 42 % 0.0 mm 193.0 W/m2 CLR
17:40 25.6 °C 12.1 °C 1018.5 hPa SW 22.2 km/h 22.2 km/h 43 % 0.0 mm 262.0 W/m2 CLR
17:45 25.6 °C 12.1 °C 1018.5 hPa WSW 22.2 km/h 22.2 km/h 43 % 0.0 mm 176.0 W/m2 CLR
17:50 25.6 °C 12.1 °C 1018.5 hPa West 20.4 km/h 20.4 km/h 43 % 0.0 mm 118.0 W/m2 CLR
17:55 25.0 °C 12.2 °C 1018.5 hPa SW 17.7 km/h 17.7 km/h 45 % 0.0 mm 151.0 W/m2 CLR
18:00 24.4 °C 11.7 °C 1018.5 hPa WSW 20.9 km/h 20.9 km/h 45 % 0.0 mm 148.0 W/m2 CLR
18:05 24.4 °C 12.1 °C 1018.8 hPa WSW 24.1 km/h 24.1 km/h 46 % 0.0 mm 190.0 W/m2 CLR
18:10 24.4 °C 12.1 °C 1018.8 hPa WSW 31.5 km/h 31.5 km/h 46 % 0.0 mm 148.0 W/m2 CLR
18:15 24.4 °C 12.1 °C 1018.8 hPa WSW 31.5 km/h 31.5 km/h 46 % 0.0 mm 139.0 W/m2 CLR
18:20 24.4 °C 12.4 °C 1019.2 hPa WSW 31.5 km/h 31.5 km/h 47 % 0.0 mm 158.0 W/m2 CLR
18:25 24.4 °C 12.4 °C 1019.2 hPa WSW 31.5 km/h 31.5 km/h 47 % 0.0 mm 113.0 W/m2 CLR
18:30 24.4 °C 12.4 °C 1019.2 hPa SW 25.9 km/h 25.9 km/h 47 % 0.0 mm 107.0 W/m2 CLR
18:35 23.9 °C 11.6 °C 1019.5 hPa SW 29.0 km/h 29.0 km/h 46 % 0.0 mm 163.0 W/m2 CLR
18:40 23.9 °C 11.6 °C 1019.5 hPa SW 24.1 km/h 24.1 km/h 46 % 0.0 mm 91.0 W/m2 CLR
18:50 23.9 °C 11.9 °C 1019.5 hPa SW 31.5 km/h 31.5 km/h 47 % 0.0 mm 84.0 W/m2 CLR
18:55 23.3 °C 11.7 °C 1019.5 hPa SW 35.4 km/h 35.4 km/h 48 % 0.0 mm 46.0 W/m2 SCT
19:00 23.3 °C 11.7 °C 1019.5 hPa SW 33.3 km/h 33.3 km/h 48 % 0.0 mm 26.0 W/m2 BKN
19:05 23.3 °C 12.0 °C 1019.5 hPa SW 31.5 km/h 31.5 km/h 49 % 0.0 mm 21.0 W/m2 BKN
19:10 23.3 °C 12.0 °C 1019.5 hPa WSW 31.5 km/h 31.5 km/h 49 % 0.0 mm 19.0 W/m2 BKN
19:15 23.3 °C 12.0 °C 1019.9 hPa WSW 29.6 km/h 29.6 km/h 49 % 0.0 mm 18.0 W/m2 BKN
19:20 22.8 °C 11.8 °C 1019.9 hPa WSW 35.4 km/h 35.4 km/h 50 % 0.0 mm 16.0 W/m2 BKN
19:25 22.8 °C 11.5 °C 1020.2 hPa SW 27.8 km/h 27.8 km/h 49 % 0.0 mm 12.0 W/m2 BKN
19:30 22.8 °C 11.8 °C 1020.2 hPa WSW 27.8 km/h 27.8 km/h 50 % 0.0 mm 11.0 W/m2 BKN
19:35 22.2 °C 11.3 °C 1020.2 hPa WSW 31.5 km/h 31.5 km/h 50 % 0.0 mm 7.0 W/m2 BKN
19:40 22.2 °C 11.6 °C 1020.2 hPa WSW 22.2 km/h 22.2 km/h 51 % 0.0 mm 5.0 W/m2 OVC
19:45 22.2 °C 11.6 °C 1020.2 hPa SW 18.5 km/h 18.5 km/h 51 % 0.0 mm 0.0 W/m2 OVC
19:50 22.2 °C 11.6 °C 1020.5 hPa SSW 18.5 km/h 18.5 km/h 51 % 0.0 mm 0.0 W/m2 OVC
19:55 22.2 °C 11.6 °C 1020.5 hPa SSW 20.9 km/h 20.9 km/h 51 % 0.0 mm 0.0 W/m2 OVC
20:00 22.2 °C 11.6 °C 1020.5 hPa SW 27.8 km/h 27.8 km/h 51 % 0.0 mm 0.0 W/m2 CLR
20:05 22.2 °C 11.9 °C 1020.5 hPa SSW 18.5 km/h 18.5 km/h 52 % 0.0 mm 0.0 W/m2 CLR
20:10 21.7 °C 11.4 °C 1020.5 hPa SW 31.5 km/h 31.5 km/h 52 % 0.0 mm 0.0 W/m2 CLR
20:15 21.7 °C 11.4 °C 1020.9 hPa SSW 18.5 km/h 18.5 km/h 52 % 0.0 mm 0.0 W/m2 CLR
20:20 21.7 °C 11.1 °C 1020.9 hPa SW 25.9 km/h 25.9 km/h 51 % 0.0 mm 0.0 W/m2 CLR
20:25 21.7 °C 11.1 °C 1020.9 hPa SW 24.1 km/h 24.1 km/h 51 % 0.0 mm 0.0 W/m2 CLR
20:30 21.7 °C 10.8 °C 1020.9 hPa WSW 27.8 km/h 27.8 km/h 50 % 0.0 mm 0.0 W/m2 CLR
20:35 21.7 °C 10.8 °C 1020.9 hPa SSW 29.0 km/h 29.0 km/h 50 % 0.0 mm 0.0 W/m2 CLR
20:40 21.7 °C 10.8 °C 1021.2 hPa SW 24.1 km/h 24.1 km/h 50 % 0.0 mm 0.0 W/m2 CLR
20:45 21.7 °C 10.8 °C 1021.2 hPa WSW 24.1 km/h 24.1 km/h 50 % 0.0 mm 0.0 W/m2 CLR
20:50 21.1 °C 10.3 °C 1021.2 hPa SW 24.1 km/h 24.1 km/h 50 % 0.0 mm 0.0 W/m2 CLR
20:55 21.1 °C 10.6 °C 1021.2 hPa WSW 31.5 km/h 31.5 km/h 51 % 0.0 mm 0.0 W/m2 CLR
21:00 21.1 °C 10.6 °C 1021.2 hPa SW 25.9 km/h 25.9 km/h 51 % 0.0 mm 0.0 W/m2 CLR
21:05 21.1 °C 10.9 °C 1021.2 hPa SW 25.9 km/h 25.9 km/h 52 % 0.0 mm 0.0 W/m2 CLR
21:10 21.1 °C 10.9 °C 1021.2 hPa SSW 31.5 km/h 31.5 km/h 52 % 0.0 mm 0.0 W/m2 CLR
21:15 21.1 °C 10.9 °C 1021.6 hPa SW 31.5 km/h 31.5 km/h 52 % 0.0 mm 0.0 W/m2 CLR
21:16 21.1 °C 10.9 °C 1021.6 hPa SW 27.8 km/h 27.8 km/h 52 % 0.0 mm 0.0 W/m2 CLR
21:21 21.1 °C 10.9 °C 1021.6 hPa SW 22.2 km/h 22.2 km/h 52 % 0.0 mm 0.0 W/m2 CLR
21:26 21.1 °C 10.9 °C 1021.6 hPa SW 20.4 km/h 20.4 km/h 52 % 0.0 mm 0.0 W/m2 CLR
21:31 21.1 °C 11.2 °C 1021.6 hPa SW 24.1 km/h 24.1 km/h 53 % 0.0 mm 0.0 W/m2 CLR
21:37 20.6 °C 10.9 °C 1021.6 hPa SW 25.9 km/h 25.9 km/h 54 % 0.0 mm 0.0 W/m2 CLR
21:42 20.6 °C 10.9 °C 1021.9 hPa SW 24.1 km/h 24.1 km/h 54 % 0.0 mm 0.0 W/m2 CLR
21:47 20.6 °C 10.9 °C 1021.9 hPa SSW 20.4 km/h 20.4 km/h 54 % 0.0 mm 0.0 W/m2 CLR
21:52 20.6 °C 11.2 °C 1021.9 hPa SSW 22.5 km/h 22.5 km/h 55 % 0.0 mm 0.0 W/m2 CLR
21:57 20.6 °C 11.2 °C 1021.6 hPa SSW 22.5 km/h 22.5 km/h 55 % 0.0 mm 0.0 W/m2 CLR
22:02 20.6 °C 11.2 °C 1021.6 hPa SSW 29.6 km/h 29.6 km/h 55 % 0.0 mm 0.0 W/m2 CLR
22:07 20.6 °C 11.2 °C 1021.6 hPa SSW 24.1 km/h 24.1 km/h 55 % 0.0 mm 0.0 W/m2 CLR
22:12 20.6 °C 11.4 °C 1021.6 hPa SSW 25.9 km/h 25.9 km/h 56 % 0.0 mm 0.0 W/m2 CLR
22:17 20.0 °C 10.9 °C 1021.9 hPa SW 27.8 km/h 27.8 km/h 56 % 0.0 mm 0.0 W/m2 CLR
22:22 20.0 °C 10.7 °C 1021.9 hPa SW 29.6 km/h 29.6 km/h 55 % 0.0 mm 0.0 W/m2 CLR
22:27 20.0 °C 10.7 °C 1021.9 hPa SSW 29.6 km/h 29.6 km/h 55 % 0.0 mm 0.0 W/m2 CLR
22:32 20.0 °C 10.7 °C 1021.9 hPa SW 32.2 km/h 32.2 km/h 55 % 0.0 mm 0.0 W/m2 CLR
22:37 20.0 °C 10.7 °C 1021.9 hPa SSW 29.6 km/h 29.6 km/h 55 % 0.0 mm 0.0 W/m2 CLR
22:42 20.0 °C 10.9 °C 1021.9 hPa SW 37.0 km/h 37.0 km/h 56 % 0.0 mm 0.0 W/m2 CLR
22:47 20.0 °C 11.2 °C 1021.9 hPa SW 31.5 km/h 31.5 km/h 57 % 0.0 mm 0.0 W/m2 CLR
22:52 19.4 °C 10.7 °C 1021.9 hPa SSW 42.6 km/h 42.6 km/h 57 % 0.0 mm 0.0 W/m2 CLR
22:57 19.4 °C 10.7 °C 1021.9 hPa SW 31.5 km/h 31.5 km/h 57 % 0.0 mm 0.0 W/m2 CLR
23:02 19.4 °C 10.9 °C 1021.9 hPa WSW 24.1 km/h 24.1 km/h 58 % 0.0 mm 0.0 W/m2 CLR
23:07 19.4 °C 10.7 °C 1021.9 hPa SSW 31.5 km/h 31.5 km/h 57 % 0.0 mm 0.0 W/m2 CLR
23:12 19.4 °C 10.7 °C 1022.2 hPa SW 22.2 km/h 22.2 km/h 57 % 0.0 mm 0.0 W/m2 CLR
23:17 19.4 °C 10.7 °C 1022.2 hPa SW 31.5 km/h 31.5 km/h 57 % 0.0 mm 0.0 W/m2 CLR
23:22 19.4 °C 10.7 °C 1022.2 hPa SW 27.4 km/h 27.4 km/h 57 % 0.0 mm 0.0 W/m2 CLR
23:27 19.4 °C 10.9 °C 1021.9 hPa SW 31.5 km/h 31.5 km/h 58 % 0.0 mm 0.0 W/m2 CLR
23:32 18.9 °C 10.4 °C 1022.2 hPa SW 32.2 km/h 32.2 km/h 58 % 0.0 mm 0.0 W/m2 CLR
23:37 18.9 °C 10.4 °C 1021.9 hPa SSW 22.5 km/h 22.5 km/h 58 % 0.0 mm 0.0 W/m2 CLR
23:39 18.9 °C 10.4 °C 1021.9 hPa SSW 29.6 km/h 29.6 km/h 58 % 0.0 mm 0.0 W/m2 CLR
23:44 18.9 °C 10.4 °C 1021.9 hPa SW 24.1 km/h 24.1 km/h 58 % 0.0 mm 0.0 W/m2 CLR
23:49 18.9 °C 10.4 °C 1022.2 hPa SSW 25.9 km/h 25.9 km/h 58 % 0.0 mm 0.0 W/m2 CLR
23:54 18.9 °C 10.4 °C 1021.9 hPa SSW 20.4 km/h 20.4 km/h 58 % 0.0 mm 0.0 W/m2 CLR
23:59 18.9 °C 10.7 °C 1021.9 hPa SW 25.9 km/h 25.9 km/h 59 % 0.0 mm 0.0 W/m2 CLR
Lo Temps de Massalio
Compliments of Weather Underground - 1.25 mb